TimeCST,TemperatureF,Dew PointF,Humidity,Sea Level PressureIn,VisibilityMPH,Wind Direction,Wind SpeedMPH,Gust SpeedMPH,PrecipitationIn,Events,Conditions,WindDirDegrees,DateUTC
12:54 AM,37.0,34.0,89,30.48,3.0,SSE,6.9,-,N/A,,Overcast,160,2012-11-17 06:54:00
1:42 AM,37.4,35.6,93,30.45,2.5,South,6.9,-,N/A,,Overcast,170,2012-11-17 07:42:00
1:51 AM,37.4,33.8,87,30.45,3.0,South,3.5,-,N/A,,Overcast,170,2012-11-17 07:51:00
1:54 AM,37.0,35.1,93,30.48,3.0,South,3.5,-,N/A,,Overcast,170,2012-11-17 07:54:00
2:08 AM,35.6,35.6,100,30.46,2.5,Variable,3.5,-,N/A,,Overcast,0,2012-11-17 08:08:00
2:54 AM,36.0,34.0,93,30.49,2.0,Calm,Calm,-,N/A,,Overcast,0,2012-11-17 08:54:00
3:42 AM,35.6,33.8,93,30.45,1.8,SSE,3.5,-,N/A,,Overcast,160,2012-11-17 09:42:00
3:54 AM,36.0,34.0,93,30.48,1.8,Calm,Calm,-,N/A,,Overcast,0,2012-11-17 09:54:00
4:52 AM,35.6,33.8,93,30.46,1.5,Calm,Calm,-,N/A,,Overcast,0,2012-11-17 10:52:00
4:54 AM,36.0,34.0,93,30.49,1.5,SE,3.5,-,N/A,,Overcast,140,2012-11-17 10:54:00
5:40 AM,35.6,33.8,93,30.45,2.0,SE,5.8,-,N/A,,Overcast,140,2012-11-17 11:40:00
5:49 AM,35.6,33.8,93,30.45,1.8,SSE,3.5,-,N/A,,Overcast,160,2012-11-17 11:49:00
5:54 AM,35.1,34.0,96,30.49,1.8,SSE,4.6,-,N/A,,Overcast,160,2012-11-17 11:54:00
6:33 AM,35.6,33.8,93,30.46,1.0,SSE,4.6,-,N/A,,Overcast,160,2012-11-17 12:33:00
6:46 AM,35.6,33.8,93,30.46,0.8,SSE,3.5,-,N/A,,Overcast,150,2012-11-17 12:46:00
6:54 AM,34.0,33.1,96,30.50,0.8,South,3.5,-,N/A,,Overcast,170,2012-11-17 12:54:00
7:54 AM,34.0,33.1,96,30.51,0.5,SSE,4.6,-,N/A,Fog,Fog,160,2012-11-17 13:54:00
8:45 AM,35.6,33.8,93,30.47,1.0,SSE,6.9,-,N/A,,Overcast,150,2012-11-17 14:45:00
8:54 AM,35.1,34.0,96,30.50,1.2,SSE,3.5,-,N/A,,Overcast,160,2012-11-17 14:54:00
9:18 AM,35.6,33.8,93,30.46,1.8,South,5.8,-,N/A,,Overcast,170,2012-11-17 15:18:00
9:32 AM,37.4,33.8,87,30.46,2.0,SSE,4.6,-,N/A,,Overcast,160,2012-11-17 15:32:00
9:52 AM,39.2,33.8,81,30.46,3.0,SSE,6.9,-,N/A,,Haze,150,2012-11-17 15:52:00
9:54 AM,39.9,34.0,79,30.49,3.0,SSE,5.8,-,N/A,,Haze,150,2012-11-17 15:54:00
10:54 AM,45.0,35.1,68,30.48,6.0,SSE,4.6,-,N/A,,Haze,160,2012-11-17 16:54:00
11:54 AM,51.1,35.1,54,30.45,9.0,Variable,6.9,-,N/A,,Clear,0,2012-11-17 17:54:00
12:54 PM,52.0,34.0,50,30.43,10.0,South,16.1,20.7,N/A,,Clear,190,2012-11-17 18:54:00
1:51 PM,53.6,33.8,47,30.39,2.0,SSW,10.4,-,N/A,,Haze,200,2012-11-17 19:51:00
1:54 PM,53.1,34.0,48,30.41,2.0,South,8.1,-,N/A,,Haze,190,2012-11-17 19:54:00
2:01 PM,53.6,33.8,47,30.39,10.0,South,11.5,-,N/A,,Clear,190,2012-11-17 20:01:00
2:54 PM,52.0,33.1,49,30.41,10.0,South,8.1,-,N/A,,Clear,180,2012-11-17 20:54:00
3:54 PM,51.1,33.1,50,30.42,10.0,South,6.9,-,N/A,,Clear,180,2012-11-17 21:54:00
4:54 PM,48.0,33.1,56,30.42,10.0,SSE,4.6,-,N/A,,Clear,150,2012-11-17 22:54:00
5:54 PM,45.0,33.1,63,30.42,10.0,SE,4.6,-,N/A,,Clear,140,2012-11-17 23:54:00
6:54 PM,43.0,34.0,71,30.42,10.0,SE,5.8,-,N/A,,Clear,130,2012-11-18 00:54:00
7:54 PM,42.1,33.1,70,30.42,9.0,SSE,4.6,-,N/A,,Clear,150,2012-11-18 01:54:00
8:54 PM,41.0,30.9,67,30.42,10.0,Calm,Calm,-,N/A,,Clear,0,2012-11-18 02:54:00
9:54 PM,39.0,30.9,73,30.42,9.0,SE,3.5,-,N/A,,Clear,140,2012-11-18 03:54:00
10:54 PM,39.0,30.0,70,30.41,9.0,SSE,5.8,-,N/A,,Clear,150,2012-11-18 04:54:00
11:54 PM,39.0,30.0,70,30.41,8.0,South,4.6,-,N/A,,Clear,170,2012-11-18 05:54:00